Temp
-21 -21 -21 -21 -21 -21 -21 -21 -21 -22 -22 -22 -22 -22 -22 -22 -22 -22 -22 -23 -23 -23 -23 -23 -23 -23 -23 -23 -23 -23 -23 -23 -23 -23 -23 -23 -23 -23 -23 -24 -24 -25 -24 -23 -23 -23 -23 -23 -23 -22 -22 -21 -20 -20 -20 -19 -19 -18 -17 -16 -15 -15 -14
-21 -21 -21 -21 -21 -21 -21 -22 -22 -22 -23 -23 -22 -22 -22 -22 -22 -23 -23 -23 -23 -23 -23 -23 -23 -24 -24 -24 -24 -24 -24 -24 -24 -24 -24 -23 -24 -24 -23 -24 -25 -25 -25 -24 -23 -23 -23 -23 -23 -23 -22 -22 -21 -21 -20 -20 -20 -19 -18 -17 -17 -16 -15
-21 -21 -21 -21 -21 -22 -22 -22 -23 -23 -23 -23 -23 -23 -23 -23 -23 -23 -23 -23 -23 -23 -23 -24 -24 -24 -24 -24 -24 -24 -24 -24 -24 -24 -24 -24 -24 -24 -24 -24 -24 -25 -25 -25 -24 -23 -23 -23 -24 -23 -23 -23 -22 -22 -22 -21 -20 -19 -19 -18 -18 -17 -16
-21 -22 -22 -22 -22 -22 -22 -23 -23 -23 -23 -23 -23 -23 -23 -23 -23 -23 -23 -23 -23 -24 -24 -24 -24 -24 -24 -24 -24 -24 -24 -24 -24 -24 -24 -24 -24 -24 -24 -24 -24 -24 -25 -25 -25 -24 -24 -24 -24 -24 -24 -24 -23 -22 -22 -22 -21 -20 -20 -19 -19 -18 -17
-22 -22 -22 -22 -22 -22 -23 -23 -23 -23 -23 -23 -23 -23 -23 -23 -23 -23 -23 -23 -24 -24 -24 -24 -24 -24 -24 -24 -24 -24 -24 -24 -24 -24 -24 -24 -24 -24 -24 -24 -24 -24 -25 -25 -25 -25 -24 -24 -25 -24 -24 -24 -24 -23 -22 -22 -21 -21 -20 -20 -19 -19 -18
-22 -22 -22 -22 -23 -23 -23 -23 -23 -23 -23 -23 -23 -23 -23 -23 -23 -23 -23 -24 -24 -24 -24 -24 -24 -24 -24 -24 -24 -24 -24 -24 -24 -24 -24 -24 -24 -24 -24 -24 -24 -24 -25 -25 -25 -25 -25 -25 -25 -25 -24 -24 -24 -23 -23 -22 -21 -21 -21 -20 -20 -20 -19
-22 -22 -22 -23 -23 -23 -23 -23 -23 -23 -23 -23 -23 -23 -23 -23 -23 -24 -24 -24 -24 -24 -24 -24 -24 -24 -24 -24 -24 -24 -24 -24 -24 -24 -24 -24 -24 -24 -24 -24 -25 -25 -25 -25 -25 -25 -26 -26 -26 -26 -24 -24 -24 -24 -23 -22 -22 -21 -21 -20 -21 -20 -20
-22 -23 -23 -23 -23 -23 -24 -24 -23 -23 -23 -23 -23 -23 -23 -23 -23 -24 -24 -24 -24 -24 -24 -24 -24 -24 -24 -24 -24 -24 -24 -24 -24 -24 -24 -24 -24 -24 -25 -25 -25 -25 -26 -26 -26 -26 -26 -26 -26 -26 -24 -23 -24 -24 -23 -22 -23 -23 -22 -21 -21 -21 -20
-23 -23 -23 -23 -23 -24 -24 -24 -23 -23 -23 -23 -23 -23 -23 -23 -23 -24 -24 -24 -24 -24 -24 -24 -24 -25 -25 -25 -24 -24 -24 -24 -24 -25 -25 -25 -25 -25 -26 -26 -26 -26 -26 -26 -26 -26 -26 -26 -26 -25 -24 -24 -24 -24 -23 -22 -23 -24 -23 -22 -22 -21 -20
-23 -23 -23 -24 -24 -24 -23 -23 -23 -23 -23 -23 -23 -23 -23 -24 -24 -24 -24 -25 -25 -25 -25 -25 -25 -25 -25 -25 -25 -24 -24 -25 -25 -25 -25 -25 -25 -25 -26 -26 -25 -26 -26 -26 -26 -25 -25 -25 -25 -24 -24 -24 -23 -23 -23 -23 -23 -23 -23 -23 -23 -22 -20
-23 -23 -23 -24 -24 -23 -23 -23 -23 -23 -23 -23 -23 -23 -23 -24 -24 -24 -25 -25 -25 -25 -25 -25 -25 -25 -25 -25 -25 -24 -24 -25 -25 -25 -25 -25 -25 -25 -25 -25 -25 -25 -25 -25 -25 -25 -25 -25 -25 -24 -23 -23 -23 -23 -23 -23 -23 -23 -23 -23 -23 -22 -20
-23 -23 -23 -24 -24 -23 -23 -23 -23 -23 -23 -23 -23 -23 -23 -23 -24 -24 -25 -25 -25 -25 -25 -25 -25 -25 -25 -25 -25 -25 -24 -25 -25 -25 -25 -24 -24 -24 -24 -24 -24 -24 -24 -24 -24 -24 -24 -24 -24 -24 -23 -23 -23 -22 -22 -22 -23 -23 -23 -23 -23 -23 -21
-23 -23 -23 -23 -23 -23 -23 -23 -23 -23 -23 -23 -23 -23 -23 -23 -24 -24 -25 -25 -25 -25 -25 -25 -25 -25 -25 -25 -25 -25 -25 -25 -25 -25 -24 -24 -24 -24 -24 -24 -23 -23 -23 -24 -24 -24 -24 -24 -24 -23 -23 -22 -22 -22 -22 -22 -22 -22 -22 -22 -22 -22 -20
-23 -23 -23 -23 -23 -23 -23 -23 -23 -23 -24 -24 -23 -23 -23 -24 -24 -25 -25 -25 -25 -25 -25 -25 -25 -25 -25 -25 -25 -25 -25 -25 -25 -24 -24 -24 -24 -24 -24 -24 -23 -23 -23 -23 -23 -23 -23 -23 -23 -23 -22 -21 -21 -22 -22 -22 -21 -21 -21 -21 -21 -20 -20
-23 -23 -23 -23 -23 -23 -23 -23 -23 -24 -24 -24 -23 -23 -23 -24 -24 -25 -25 -25 -25 -25 -25 -25 -25 -25 -25 -25 -25 -25 -25 -25 -24 -24 -24 -24 -24 -24 -24 -23 -23 -23 -22 -22 -22 -22 -22 -21 -21 -21 -21 -21 -20 -21 -21 -20 -20 -20 -20 -21 -21 -21 -21
-23 -23 -23 -23 -23 -24 -23 -23 -24 -24 -24 -24 -24 -23 -24 -25 -25 -25 -25 -25 -25 -25 -25 -25 -25 -25 -25 -25 -25 -25 -25 -24 -24 -24 -24 -24 -24 -24 -24 -24 -23 -23 -22 -22 -21 -21 -21 -21 -21 -20 -20 -20 -20 -20 -20 -20 -20 -20 -21 -22 -22 -22 -21
-23 -23 -23 -23 -24 -24 -24 -24 -24 -24 -24 -24 -24 -23 -24 -25 -25 -25 -25 -25 -25 -25 -25 -25 -25 -25 -25 -25 -25 -25 -24 -24 -23 -24 -24 -24 -24 -24 -24 -24 -23 -23 -22 -22 -21 -21 -21 -21 -21 -21 -20 -20 -20 -20 -20 -20 -20 -20 -20 -21 -21 -21 -21
-23 -23 -23 -24 -24 -24 -24 -24 -24 -24 -25 -25 -24 -24 -24 -25 -25 -26 -26 -25 -25 -25 -25 -25 -25 -25 -25 -25 -25 -25 -24 -23 -23 -24 -24 -24 -24 -24 -24 -23 -23 -23 -23 -22 -22 -21 -21 -21 -21 -21 -20 -20 -20 -20 -20 -20 -20 -20 -20 -20 -21 -21 -20
-23 -23 -23 -24 -24 -24 -25 -24 -24 -24 -25 -25 -24 -24 -24 -25 -26 -26 -26 -26 -26 -25 -25 -25 -25 -26 -26 -26 -25 -25 -24 -23 -23 -24 -24 -24 -24 -23 -23 -23 -23 -23 -23 -23 -23 -22 -22 -21 -21 -21 -21 -20 -20 -20 -20 -20 -20 -20 -20 -20 -20 -20 -20
-24 -24 -24 -24 -24 -24 -25 -25 -25 -25 -25 -26 -25 -24 -24 -25 -26 -26 -26 -26 -26 -26 -26 -26 -26 -27 -26 -26 -25 -25 -24 -24 -23 -23 -23 -23 -24 -24 -23 -23 -23 -23 -23 -23 -23 -23 -22 -22 -22 -22 -21 -21 -21 -20 -20 -20 -20 -20 -20 -20 -20 -20 -20
-24 -24 -24 -24 -24 -24 -25 -25 -25 -25 -26 -26 -25 -24 -24 -25 -26 -25 -25 -26 -26 -26 -27 -27 -27 -27 -26 -26 -26 -25 -24 -24 -23 -23 -23 -24 -24 -24 -24 -24 -24 -24 -24 -23 -23 -23 -23 -22 -22 -22 -22 -21 -21 -21 -20 -20 -20 -20 -20 -21 -21 -20 -20
-24 -24 -24 -24 -24 -24 -25 -25 -25 -26 -26 -26 -26 -25 -24 -25 -25 -25 -25 -26 -26 -27 -27 -27 -27 -26 -26 -26 -26 -25 -24 -24 -23 -23 -24 -24 -24 -24 -24 -24 -24 -24 -23 -23 -23 -23 -23 -22 -22 -22 -22 -22 -21 -21 -21 -21 -20 -20 -21 -21 -21 -20 -20
-24 -24 -24 -24 -24 -24 -25 -25 -25 -26 -26 -26 -26 -26 -25 -25 -25 -25 -25 -26 -27 -27 -27 -26 -26 -26 -26 -26 -25 -25 -24 -24 -24 -24 -24 -24 -24 -24 -24 -24 -24 -24 -23 -23 -23 -23 -23 -23 -23 -23 -22 -22 -22 -21 -21 -22 -22 -21 -21 -21 -20 -20 -19
-24 -25 -25 -24 -24 -24 -25 -25 -26 -26 -26 -26 -26 -27 -26 -25 -25 -25 -25 -26 -26 -26 -26 -26 -26 -26 -26 -26 -25 -25 -25 -24 -24 -24 -24 -24 -24 -24 -24 -24 -24 -24 -24 -24 -24 -24 -24 -23 -24 -24 -23 -23 -23 -23 -23 -24 -23 -22 -22 -21 -21 -20 -19
-25 -25 -25 -25 -25 -25 -25 -26 -26 -26 -26 -26 -27 -27 -27 -26 -26 -26 -26 -26 -26 -26 -26 -26 -26 -26 -26 -26 -26 -25 -25 -25 -25 -25 -25 -25 -25 -25 -25 -25 -25 -25 -25 -25 -25 -25 -25 -24 -24 -24 -24 -24 -25 -24 -24 -24 -24 -22 -21 -21 -20 -19 -19
-25 -26 -26 -26 -26 -26 -25 -26 -26 -26 -26 -27 -27 -27 -27 -26 -27 -27 -27 -27 -27 -27 -27 -27 -27 -27 -27 -27 -27 -27 -26 -26 -26 -26 -26 -26 -26 -26 -26 -26 -26 -26 -26 -26 -26 -26 -26 -25 -25 -25 -25 -25 -25 -25 -24 -24 -23 -22 -21 -20 -20 -19 -19
-25 -26 -27 -27 -26 -26 -26 -26 -26 -26 -27 -27 -27 -27 -26 -27 -27 -27 -27 -27 -27 -27 -27 -27 -28 -28 -28 -28 -28 -28 -28 -28 -27 -27 -27 -27 -26 -26 -27 -27 -27 -27 -27 -27 -27 -27 -26 -26 -26 -26 -26 -25 -25 -24 -24 -23 -23 -22 -20 -19 -20 -20 -20
-26 -26 -27 -27 -26 -26 -26 -26 -26 -27 -27 -27 -27 -27 -27 -27 -27 -27 -27 -27 -27 -28 -28 -28 -28 -28 -28 -28 -28 -28 -28 -28 -27 -27 -27 -27 -27 -27 -27 -27 -27 -27 -27 -27 -27 -27 -27 -27 -27 -27 -26 -26 -25 -24 -23 -23 -23 -21 -20 -20 -20 -21 -20
-26 -27 -27 -27 -26 -26 -26 -26 -26 -27 -27 -27 -26 -26 -26 -27 -27 -27 -27 -28 -28 -28 -28 -28 -28 -28 -28 -28 -28 -28 -28 -27 -27 -27 -27 -27 -27 -27 -27 -27 -27 -27 -27 -27 -27 -27 -27 -27 -27 -27 -26 -26 -25 -23 -22 -22 -22 -21 -20 -20 -20 -20 -19
-27 -27 -26 -26 -26 -26 -26 -27 -27 -27 -27 -26 -26 -26 -26 -26 -26 -26 -27 -28 -28 -28 -28 -28 -28 -28 -28 -28 -28 -28 -28 -28 -28 -28 -27 -27 -27 -27 -27 -27 -27 -27 -28 -28 -28 -28 -28 -28 -28 -28 -27 -26 -24 -23 -22 -22 -21 -21 -20 -20 -20 -19 -19
-27 -26 -26 -26 -26 -27 -27 -27 -27 -28 -27 -26 -26 -25 -26 -26 -26 -27 -27 -28 -28 -28 -28 -28 -28 -28 -28 -28 -29 -29 -29 -29 -28 -28 -28 -28 -27 -27 -28 -28 -28 -28 -28 -28 -28 -28 -28 -29 -29 -28 -27 -26 -25 -24 -23 -22 -21 -21 -20 -20 -19 -19 -18
-26 -26 -26 -27 -27 -27 -28 -28 -28 -28 -28 -28 -27 -27 -27 -27 -27 -28 -28 -28 -28 -28 -29 -29 -29 -29 -29 -29 -29 -29 -29 -29 -29 -29 -28 -28 -28 -28 -28 -28 -28 -28 -28 -28 -28 -28 -29 -29 -29 -28 -28 -27 -26 -25 -24 -22 -21 -21 -20 -20 -19 -19 -18
-25 -25 -26 -26 -27 -27 -28 -28 -28 -29 -28 -28 -28 -28 -28 -28 -29 -29 -29 -29 -29 -29 -30 -30 -30 -30 -30 -30 -30 -30 -30 -30 -29 -29 -29 -29 -29 -29 -28 -28 -28 -29 -29 -29 -28 -29 -30 -30 -29 -28 -28 -27 -27 -26 -25 -23 -22 -21 -20 -20 -19 -19 -18
-24 -25 -25 -26 -26 -26 -27 -28 -28 -29 -29 -28 -28 -28 -28 -29 -29 -30 -30 -30 -30 -30 -30 -30 -31 -31 -31 -31 -31 -31 -30 -30 -30 -30 -29 -29 -29 -29 -29 -29 -29 -29 -29 -28 -28 -29 -29 -29 -29 -28 -28 -28 -27 -26 -25 -24 -23 -22 -21 -20 -19 -19 -19
-23 -24 -25 -26 -26 -26 -27 -28 -28 -29 -29 -29 -29 -29 -29 -29 -29 -29 -30 -30 -30 -30 -30 -31 -31 -32 -32 -32 -31 -31 -31 -31 -31 -30 -30 -30 -29 -29 -29 -29 -29 -29 -29 -29 -28 -28 -29 -29 -29 -29 -29 -28 -27 -27 -26 -25 -24 -23 -22 -20 -20 -19 -19
-24 -24 -25 -25 -26 -27 -28 -28 -29 -29 -29 -29 -30 -29 -30 -30 -30 -30 -30 -30 -30 -31 -31 -32 -32 -32 -32 -33 -32 -32 -32 -32 -31 -31 -31 -30 -30 -30 -29 -29 -29 -29 -29 -29 -28 -28 -28 -28 -28 -28 -28 -28 -27 -26 -26 -25 -24 -23 -22 -21 -20 -19 -19
Height
1475 1473 1472 1470 1468 1467 1465 1464 1463 1461 1460 1458 1456 1455 1454 1453 1451 1449 1448 1446 1445 1444 1443 1442 1440 1439 1439 1439 1437 1436 1435 1434 1434 1433 1432 1432 1430 1429 1428 1427 1425 1419 1407 1402 1406 1405 1401 1404 1403 1400 1400 1399 1395 1395 1397 1396 1395 1395 1394 1393 1393 1393 1394
1471 1469 1468 1466 1464 1463 1462 1460 1459 1458 1456 1454 1452 1451 1450 1448 1447 1445 1443 1442 1441 1440 1439 1437 1436 1435 1434 1434 1433 1431 1431 1430 1430 1429 1428 1427 1426 1424 1423 1423 1420 1417 1409 1400 1399 1400 1398 1399 1400 1396 1395 1396 1392 1390 1391 1390 1390 1390 1389 1388 1388 1387 1388
1467 1465 1464 1462 1460 1459 1458 1457 1455 1454 1452 1450 1448 1447 1445 1444 1443 1441 1439 1438 1436 1435 1434 1433 1431 1430 1430 1429 1428 1427 1427 1426 1425 1425 1424 1422 1422 1420 1418 1419 1417 1413 1408 1400 1395 1395 1394 1394 1395 1392 1391 1392 1389 1386 1386 1385 1384 1385 1384 1384 1383 1382 1382
1463 1461 1460 1458 1456 1455 1454 1453 1451 1450 1448 1446 1444 1442 1441 1439 1438 1437 1435 1433 1432 1431 1430 1429 1427 1426 1426 1425 1424 1422 1422 1422 1421 1420 1420 1417 1417 1416 1413 1413 1412 1409 1406 1400 1392 1390 1390 1390 1391 1388 1387 1388 1386 1383 1382 1381 1380 1380 1379 1378 1378 1377 1376
1459 1457 1455 1454 1452 1451 1450 1448 1447 1445 1443 1441 1440 1438 1436 1435 1433 1432 1431 1429 1428 1427 1426 1424 1423 1422 1422 1421 1419 1418 1417 1418 1417 1416 1415 1413 1412 1411 1410 1408 1407 1405 1402 1398 1391 1386 1386 1387 1387 1385 1382 1383 1383 1379 1377 1377 1375 1375 1374 1373 1373 1372 1372
1454 1453 1451 1450 1448 1447 1446 1444 1442 1440 1438 1437 1435 1434 1432 1430 1429 1427 1426 1424 1423 1422 1421 1420 1419 1418 1417 1416 1414 1414 1413 1412 1412 1411 1409 1408 1407 1406 1405 1403 1401 1400 1398 1395 1390 1385 1382 1382 1383 1382 1378 1378 1379 1376 1373 1371 1370 1370 1370 1369 1368 1367 1367
1450 1448 1447 1445 1444 1443 1441 1440 1438 1436 1434 1432 1430 1429 1427 1425 1424 1422 1421 1420 1419 1418 1417 1415 1414 1413 1412 1412 1410 1409 1408 1407 1407 1406 1404 1403 1402 1401 1400 1397 1396 1395 1393 1390 1386 1382 1379 1378 1379 1379 1374 1373 1375 1373 1370 1368 1366 1364 1365 1365 1364 1362 1362
1445 1444 1442 1441 1440 1438 1437 1435 1433 1431 1429 1427 1426 1424 1422 1421 1419 1418 1416 1415 1414 1413 1412 1410 1409 1408 1407 1407 1406 1405 1404 1403 1402 1400 1399 1398 1397 1396 1394 1392 1391 1389 1388 1386 1383 1379 1377 1375 1374 1374 1371 1369 1370 1368 1365 1366 1365 1362 1360 1360 1360 1358 1358
1441 1439 1438 1437 1435 1434 1432 1430 1428 1426 1425 1423 1421 1419 1418 1416 1414 1412 1411 1410 1408 1407 1406 1405 1403 1403 1402 1402 1401 1400 1399 1397 1397 1395 1393 1391 1391 1390 1389 1387 1386 1384 1383 1381 1378 1375 1373 1372 1370 1369 1368 1365 1365 1364 1362 1362 1363 1360 1357 1357 1355 1353 1354
1437 1435 1433 1432 1430 1428 1427 1425 1423 1422 1420 1419 1417 1415 1413 1411 1409 1408 1406 1405 1403 1401 1400 1399 1398 1397 1397 1396 1395 1395 1394 1392 1392 1391 1389 1387 1386 1385 1384 1382 1381 1379 1378 1376 1373 1370 1369 1368 1366 1364 1364 1362 1360 1360 1360 1359 1358 1355 1354 1354 1352 1347 1348
1432 1430 1428 1427 1425 1423 1421 1419 1418 1417 1416 1414 1414 1412 1410 1407 1406 1405 1403 1400 1399 1397 1395 1394 1393 1392 1392 1391 1391 1390 1389 1388 1387 1386 1385 1384 1383 1382 1381 1379 1376 1374 1373 1371 1368 1365 1364 1363 1361 1359 1359 1358 1356 1356 1355 1354 1353 1352 1350 1350 1349 1344 1342
1427 1425 1423 1422 1419 1417 1416 1414 1413 1412 1411 1409 1409 1408 1406 1404 1402 1400 1398 1396 1394 1392 1390 1389 1388 1387 1386 1386 1385 1385 1383 1382 1381 1380 1379 1378 1377 1376 1375 1374 1372 1370 1368 1367 1364 1361 1359 1358 1356 1354 1354 1353 1352 1350 1350 1349 1349 1348 1345 1345 1344 1341 1337
1422 1420 1418 1416 1414 1412 1410 1409 1408 1407 1406 1404 1403 1403 1402 1400 1397 1394 1392 1390 1389 1387 1386 1384 1383 1381 1381 1380 1380 1379 1378 1377 1376 1375 1374 1372 1371 1370 1369 1368 1367 1365 1364 1363 1361 1358 1355 1354 1353 1350 1348 1347 1347 1346 1345 1345 1343 1342 1340 1339 1339 1336 1334
1417 1415 1413 1411 1409 1407 1405 1404 1403 1402 1401 1399 1398 1398 1397 1395 1392 1389 1387 1385 1384 1382 1381 1380 1379 1377 1375 1375 1375 1374 1373 1372 1371 1370 1368 1367 1365 1363 1362 1361 1360 1359 1358 1357 1356 1353 1349 1348 1348 1345 1342 1342 1343 1342 1340 1339 1337 1335 1334 1333 1333 1332 1331
1411 1410 1408 1407 1405 1402 1400 1399 1398 1397 1395 1394 1393 1393 1392 1389 1386 1384 1382 1380 1379 1378 1377 1375 1374 1372 1371 1370 1370 1369 1369 1367 1366 1364 1362 1360 1359 1357 1356 1354 1352 1352 1350 1349 1348 1346 1343 1342 1342 1340 1338 1337 1337 1336 1334 1333 1332 1330 1329 1329 1328 1328 1326
1407 1405 1403 1401 1399 1397 1394 1393 1393 1392 1390 1389 1388 1388 1386 1383 1381 1379 1377 1376 1375 1374 1373 1371 1370 1368 1367 1365 1364 1364 1364 1363 1362 1360 1357 1356 1354 1352 1350 1348 1346 1346 1345 1343 1342 1340 1338 1336 1336 1335 1333 1332 1331 1330 1328 1328 1327 1325 1325 1325 1324 1323 1320
1402 1400 1398 1396 1394 1392 1389 1388 1388 1388 1386 1384 1383 1383 1381 1378 1376 1374 1372 1371 1370 1369 1368 1367 1366 1364 1362 1361 1359 1359 1359 1359 1358 1356 1354 1352 1350 1348 1345 1343 1342 1341 1339 1337 1336 1334 1332 1331 1330 1330 1328 1327 1326 1325 1325 1325 1323 1321 1321 1320 1318 1317 1315
1397 1395 1393 1391 1389 1387 1385 1383 1383 1383 1381 1379 1379 1378 1377 1374 1372 1370 1368 1366 1365 1365 1364 1362 1361 1360 1358 1356 1355 1354 1354 1354 1353 1352 1350 1347 1345 1343 1341 1338 1337 1336 1333 1331 1329 1327 1326 1325 1325 1325 1323 1322 1321 1320 1321 1321 1319 1318 1318 1315 1313 1312 1310
1392 1390 1388 1386 1384 1383 1381 1378 1377 1378 1376 1374 1374 1374 1373 1370 1368 1365 1363 1362 1361 1360 1358 1357 1356 1355 1354 1353 1351 1351 1350 1350 1349 1347 1345 1343 1341 1339 1336 1335 1334 1331 1328 1325 1322 1320 1319 1318 1318 1318 1317 1316 1315 1314 1314 1314 1313 1314 1313 1310 1308 1307 1307
1387 1384 1383 1382 1380 1378 1376 1374 1373 1372 1371 1370 1369 1369 1369 1367 1364 1362 1360 1358 1356 1355 1353 1352 1351 1350 1350 1349 1348 1347 1346 1345 1344 1342 1341 1339 1336 1334 1332 1330 1328 1325 1322 1319 1317 1315 1313 1312 1311 1311 1310 1309 1308 1307 1306 1306 1305 1305 1305 1304 1303 1303 1303
1382 1380 1377 1376 1375 1373 1372 1370 1368 1367 1367 1366 1365 1365 1365 1363 1360 1358 1356 1354 1352 1350 1348 1347 1346 1345 1345 1344 1343 1342 1341 1340 1339 1338 1336 1333 1331 1330 1328 1325 1321 1319 1317 1314 1312 1310 1308 1306 1305 1303 1303 1302 1301 1299 1298 1298 1297 1297 1297 1297 1297 1297 1297
1377 1375 1372 1371 1370 1368 1367 1366 1364 1363 1363 1362 1361 1361 1360 1359 1357 1355 1353 1350 1348 1346 1344 1342 1341 1340 1340 1339 1338 1337 1337 1335 1334 1332 1330 1328 1327 1325 1322 1319 1315 1313 1311 1309 1307 1304 1301 1300 1298 1297 1295 1294 1293 1292 1291 1290 1289 1288 1289 1290 1290 1290 1289
1373 1370 1367 1366 1364 1363 1362 1362 1361 1360 1359 1358 1357 1356 1355 1354 1352 1351 1350 1347 1343 1341 1339 1338 1337 1335 1335 1334 1333 1332 1332 1330 1328 1326 1324 1323 1321 1318 1315 1313 1311 1309 1306 1304 1301 1299 1296 1294 1292 1290 1288 1287 1285 1284 1283 1283 1283 1282 1282 1283 1283 1282 1282
1368 1365 1363 1360 1359 1358 1358 1357 1357 1356 1355 1354 1352 1351 1350 1348 1347 1346 1345 1342 1339 1337 1336 1334 1332 1331 1331 1330 1329 1327 1326 1324 1322 1320 1319 1317 1315 1312 1310 1308 1306 1303 1301 1299 1296 1294 1291 1288 1287 1285 1282 1280 1279 1277 1276 1276 1275 1275 1275 1276 1275 1275 1275
1363 1361 1359 1356 1355 1354 1354 1353 1353 1351 1350 1349 1348 1346 1345 1344 1342 1341 1340 1337 1335 1333 1332 1330 1328 1327 1326 1325 1323 1321 1319 1318 1316 1315 1313 1311 1309 1307 1305 1303 1301 1299 1296 1293 1291 1289 1286 1283 1281 1280 1277 1275 1273 1271 1269 1269 1268 1268 1268 1269 1268 1268 1268
1359 1357 1355 1353 1351 1350 1349 1349 1348 1346 1345 1344 1342 1341 1340 1338 1337 1336 1334 1332 1330 1328 1327 1325 1324 1323 1321 1319 1317 1316 1314 1312 1311 1310 1308 1307 1305 1303 1301 1298 1296 1294 1291 1289 1286 1284 1281 1278 1276 1274 1272 1270 1268 1265 1263 1264 1264 1262 1262 1263 1263 1262 1261
1355 1353 1351 1349 1348 1346 1344 1344 1343 1342 1341 1339 1338 1336 1335 1333 1332 1330 1328 1327 1324 1323 1321 1319 1318 1317 1315 1314 1312 1311 1310 1308 1307 1306 1304 1302 1301 1298 1296 1294 1292 1290 1287 1285 1282 1279 1276 1274 1272 1269 1267 1265 1263 1260 1259 1260 1260 1258 1257 1257 1258 1257 1256
1351 1349 1348 1346 1344 1342 1340 1339 1338 1337 1336 1335 1334 1332 1330 1328 1327 1325 1323 1321 1319 1318 1316 1314 1313 1312 1311 1310 1308 1307 1306 1305 1303 1301 1300 1298 1296 1294 1292 1290 1288 1286 1284 1281 1279 1276 1273 1270 1268 1265 1263 1261 1258 1256 1255 1256 1255 1254 1252 1252 1253 1253 1251
1347 1346 1345 1344 1342 1340 1338 1335 1334 1334 1333 1332 1331 1329 1327 1326 1324 1322 1320 1318 1316 1313 1312 1310 1309 1308 1307 1305 1304 1302 1301 1299 1298 1296 1295 1293 1292 1290 1288 1286 1284 1282 1280 1277 1275 1272 1269 1267 1264 1262 1260 1257 1255 1252 1252 1252 1251 1250 1249 1248 1248 1247 1245
1346 1345 1344 1343 1341 1339 1336 1333 1331 1331 1330 1329 1329 1328 1326 1324 1322 1320 1317 1313 1311 1309 1308 1306 1305 1304 1302 1301 1299 1297 1295 1294 1292 1291 1289 1288 1287 1285 1284 1282 1280 1278 1276 1274 1272 1269 1266 1264 1262 1259 1257 1255 1252 1250 1249 1248 1247 1247 1245 1244 1243 1241 1240
1344 1344 1343 1341 1338 1335 1333 1331 1329 1327 1326 1325 1325 1324 1322 1320 1319 1317 1312 1307 1305 1305 1304 1302 1300 1299 1297 1296 1294 1292 1290 1289 1287 1286 1285 1283 1282 1281 1280 1278 1276 1275 1273 1270 1268 1266 1264 1262 1260 1257 1255 1253 1250 1248 1246 1245 1244 1243 1241 1239 1238 1237 1236
1340 1339 1338 1336 1334 1331 1329 1327 1325 1323 1322 1321 1320 1319 1317 1315 1314 1311 1307 1303 1302 1301 1300 1297 1296 1294 1292 1291 1289 1287 1286 1285 1283 1282 1281 1279 1278 1277 1276 1275 1273 1271 1269 1267 1265 1263 1261 1259 1257 1255 1253 1251 1248 1246 1243 1242 1241 1239 1237 1236 1235 1234 1233
1336 1334 1332 1330 1328 1326 1324 1323 1321 1319 1317 1316 1314 1313 1312 1310 1308 1305 1302 1299 1298 1297 1295 1293 1291 1289 1287 1286 1285 1283 1282 1281 1280 1278 1277 1276 1274 1273 1272 1271 1269 1268 1266 1264 1262 1260 1258 1256 1255 1252 1250 1248 1246 1244 1241 1239 1238 1236 1235 1234 1233 1232 1231
1330 1329 1327 1325 1323 1321 1319 1317 1315 1313 1312 1310 1309 1308 1308 1306 1303 1301 1299 1297 1295 1293 1291 1288 1286 1285 1283 1282 1281 1279 1278 1277 1276 1275 1273 1272 1271 1269 1268 1267 1266 1265 1263 1261 1260 1258 1256 1254 1252 1250 1248 1245 1243 1241 1239 1237 1235 1234 1232 1231 1231 1230 1229
1324 1324 1322 1320 1318 1316 1314 1312 1310 1308 1307 1305 1305 1306 1304 1301 1298 1296 1295 1293 1291 1289 1287 1285 1283 1281 1279 1278 1277 1276 1274 1273 1272 1271 1270 1268 1267 1266 1265 1264 1263 1261 1260 1258 1256 1255 1253 1251 1249 1247 1245 1243 1240 1238 1236 1234 1233 1231 1230 1229 1228 1227 1226
1319 1318 1317 1316 1314 1312 1310 1308 1306 1304 1302 1302 1303 1302 1299 1295 1293 1291 1290 1288 1286 1285 1283 1281 1279 1277 1276 1274 1273 1272 1271 1270 1268 1267 1266 1265 1264 1262 1261 1260 1259 1258 1256 1255 1253 1252 1250 1248 1246 1244 1243 1240 1237 1235 1233 1231 1229 1228 1227 1226 1225 1224 1224
Wind_Speed
30 30 32 33 32 29 27 27 27 28 28 30 31 31 31 31 31 31 31 30 29 28 28 28 28 28 28 27 28 28 28 28 27 27 29 29 30 32 31 33 34 37 47 51 47 47 48 44 42 44 43 44 46 44 41 40 40 40 40 41 42 42 44
31 32 33 33 31 28 26 27 28 29 31 32 33 33 32 32 31 31 31 30 30 29 28 28 29 29 28 27 28 28 27 28 27 27 29 29 29 32 32 31 34 35 39 47 50 48 48 45 41 43 44 42 44 44 42 40 39 37 38 39 40 41 42
32 33 33 32 30 27 26 28 30 32 33 34 34 34 33 32 32 31 31 30 30 29 28 28 28 28 27 27 27 28 27 27 28 28 29 30 29 31 32 31 33 36 38 45 50 48 48 46 40 41 42 39 40 42 40 40 39 36 36 37 38 39 40
33 33 33 31 29 28 28 30 32 34 35 35 34 34 34 33 32 31 31 30 30 28 27 27 27 28 27 27 28 29 29 28 29 29 29 30 30 30 32 32 32 36 38 41 46 47 47 43 37 38 39 36 38 41 40 40 40 38 37 36 36 37 39
33 33 33 31 29 29 31 32 35 37 36 35 34 34 34 33 32 31 30 30 28 27 26 27 28 28 28 29 30 30 31 30 29 30 30 31 32 32 33 33 33 36 37 39 43 46 46 43 38 40 43 38 37 42 43 42 42 40 38 37 36 36 37
33 33 32 30 30 31 33 34 37 37 36 35 34 33 33 32 31 30 29 27 27 26 27 27 29 30 29 29 31 31 31 31 31 31 32 32 33 33 33 34 35 36 37 39 43 46 46 44 39 40 44 41 36 39 43 43 43 41 38 37 36 35 34
33 33 32 30 31 32 34 36 37 37 36 35 34 32 32 31 29 28 27 27 27 27 28 29 29 30 30 30 31 32 32 33 33 33 34 34 34 34 34 35 36 36 38 40 43 44 45 44 39 38 43 43 38 38 41 40 41 41 37 35 35 34 32
33 32 31 31 32 33 35 37 37 36 35 34 33 31 30 29 27 27 28 28 29 29 29 30 31 32 31 31 31 33 33 34 34 34 35 35 34 33 34 35 36 37 38 39 41 43 43 43 41 40 42 42 38 38 39 37 36 38 38 37 36 35 33
32 31 31 32 33 35 36 37 36 35 33 32 31 29 29 28 28 29 31 31 32 32 32 33 33 33 33 32 32 33 34 35 35 34 35 36 34 34 35 36 37 38 39 40 41 43 43 42 42 41 41 41 40 39 40 39 37 39 41 41 42 40 37
31 31 33 34 35 36 36 35 34 33 32 30 29 28 29 30 31 31 32 34 34 34 34 34 34 34 33 33 33 33 34 35 34 33 33 34 35 36 37 39 40 40 41 42 43 45 44 44 44 44 43 44 45 44 44 45 45 45 46 45 45 45 39
31 32 34 35 36 36 35 34 33 31 30 28 26 25 27 29 30 30 32 34 35 35 35 35 35 35 34 34 34 34 35 34 33 32 31 32 32 33 35 37 40 42 43 43 45 46 46 46 48 48 47 48 49 48 47 48 47 47 47 44 44 47 42
33 34 35 35 36 35 34 33 32 30 29 28 25 24 25 27 28 30 32 34 35 36 36 37 37 36 35 35 34 34 35 34 33 32 32 32 33 33 33 34 36 40 42 44 45 47 48 48 49 50 50 49 48 47 47 47 46 46 47 45 44 47 44
33 34 34 34 35 34 34 33 31 29 28 28 26 22 23 26 29 31 32 34 35 36 37 37 37 37 36 34 33 33 33 33 33 33 33 34 34 35 35 34 34 35 38 40 41 44 46 47 47 48 49 45 43 45 46 46 46 45 46 47 45 45 43
33 33 33 33 33 34 33 32 30 29 28 28 26 22 22 26 29 31 33 34 35 36 36 36 35 35 35 33 32 32 32 32 33 34 34 34 34 34 33 33 33 33 34 34 36 40 42 42 42 44 46 42 41 45 47 47 47 46 46 47 45 43 44
33 33 33 32 32 33 33 32 30 28 28 27 25 23 23 26 29 31 33 34 34 34 34 33 32 33 33 33 32 31 31 32 33 34 34 33 33 34 34 35 36 35 34 33 34 37 39 39 39 41 43 42 41 43 44 45 45 46 47 49 47 46 47
32 33 33 32 32 33 33 32 29 27 27 27 25 22 23 26 29 30 31 32 32 31 31 30 29 30 31 31 31 31 31 31 32 33 33 34 35 37 38 39 39 36 35 35 36 38 40 40 40 40 40 41 41 43 45 46 47 48 48 48 47 47 49
33 33 33 33 32 32 33 32 29 27 26 25 23 21 23 26 27 28 30 30 29 29 29 28 28 28 29 30 31 31 31 29 29 31 33 36 37 38 39 40 39 36 35 35 35 37 39 39 38 39 39 39 40 41 43 44 46 48 47 47 45 45 48
33 33 33 32 31 31 31 31 28 25 24 24 22 20 21 24 25 26 28 29 28 28 27 28 27 27 27 29 30 31 30 28 29 32 34 36 37 38 38 37 37 36 36 36 37 39 40 40 39 40 40 40 41 42 40 39 41 42 42 44 44 45 47
33 33 32 31 31 29 29 30 28 24 22 22 21 18 18 21 24 27 28 28 28 27 27 27 27 26 25 27 30 31 31 30 31 32 33 34 36 35 35 34 34 34 36 38 40 42 43 43 43 44 44 44 44 45 43 43 43 42 41 41 42 43 42
32 33 32 30 29 29 28 28 26 23 21 20 19 16 16 20 24 26 27 27 26 27 28 28 28 27 27 29 31 32 33 32 30 29 30 33 32 31 31 31 31 32 34 37 40 42 43 45 46 46 47 47 47 47 47 47 47 46 44 42 42 41 40
32 32 32 30 28 28 26 25 24 21 18 17 16 15 15 19 23 24 25 26 27 29 31 31 30 30 31 32 33 32 32 31 28 27 29 30 29 28 29 29 30 33 35 38 41 43 45 47 48 48 49 49 48 48 48 47 47 46 43 41 41 41 41
31 31 31 29 28 27 25 22 20 18 16 15 16 18 18 20 22 22 23 27 30 31 31 31 31 32 31 30 30 30 28 27 27 28 30 29 27 28 29 31 34 36 38 40 43 45 47 48 48 48 47 46 45 44 43 42 41 40 37 35 36 38 41
31 30 30 29 28 26 23 19 16 16 16 17 20 22 21 21 20 19 21 26 30 30 30 31 32 31 29 27 27 27 26 27 29 30 30 28 28 30 32 34 36 38 39 41 42 43 45 46 44 44 44 43 43 42 40 35 32 31 31 30 32 34 38
30 30 30 29 28 25 21 17 16 17 20 22 23 25 25 24 21 19 20 24 27 28 29 30 29 28 27 26 26 27 28 29 30 29 28 28 30 32 34 34 35 36 36 38 39 39 41 42 41 41 41 42 41 40 37 32 29 30 31 31 32 33 33
30 29 28 28 27 24 20 18 20 23 25 25 25 27 27 25 21 19 21 24 26 26 27 28 27 27 27 27 27 28 29 28 28 28 30 33 35 36 35 34 33 33 33 34 36 36 38 39 39 39 39 38 37 36 35 32 30 31 31 31 32 33 32
29 28 27 26 26 25 24 24 27 28 26 25 27 28 27 24 23 23 25 26 27 28 28 28 27 26 27 28 28 28 28 29 31 34 36 38 37 36 34 32 31 31 31 32 32 33 35 37 37 37 36 34 32 31 30 27 27 28 28 29 30 31 33
28 27 27 26 26 27 29 31 30 28 26 26 28 28 26 25 26 27 27 29 30 30 29 27 25 24 25 26 27 27 29 31 35 38 38 37 34 32 30 29 28 27 27 28 29 30 32 34 33 33 31 29 28 28 26 23 22 24 25 26 27 29 32
27 27 26 27 29 31 33 32 29 26 26 27 27 27 26 26 27 28 29 28 27 26 24 22 22 23 25 27 28 30 33 35 37 38 36 33 30 29 28 26 25 25 24 25 26 28 30 30 29 28 27 26 26 26 24 21 19 20 23 26 25 26 32
27 27 27 29 31 32 31 30 28 26 26 26 25 25 26 26 26 27 26 23 21 22 24 25 26 28 30 31 33 35 37 38 37 34 31 29 28 27 26 24 24 23 23 23 24 25 26 26 26 26 25 25 26 25 22 18 17 18 21 23 23 26 32
24 26 27 28 30 28 27 27 27 26 25 25 24 24 25 25 25 25 25 25 26 27 29 30 30 32 33 34 36 37 37 36 34 31 29 28 27 25 24 23 22 22 22 23 23 23 23 23 24 25 25 25 25 24 21 18 17 17 18 18 21 26 31
21 23 23 24 25 25 25 24 23 23 25 25 24 23 24 24 23 22 23 28 30 29 30 32 33 35 36 36 35 35 33 32 30 29 28 27 26 24 22 22 22 21 21 22 22 21 20 20 22 25 24 23 24 24 22 19 17 16 14 14 18 25 30
20 20 20 20 21 22 22 22 21 21 22 22 22 23 24 23 22 21 24 29 31 31 32 35 36 36 35 33 32 30 29 28 28 27 26 26 25 24 22 21 21 21 21 21 21 19 19 20 21 23 23 23 24 24 24 21 17 15 13 11 13 21 27
20 19 19 19 19 19 19 20 20 20 20 21 22 22 19 18 20 23 27 30 32 33 35 36 34 33 30 29 28 27 27 27 26 25 24 24 24 24 22 21 21 20 20 20 19 19 18 19 20 21 22 24 23 23 23 22 18 15 13 10 9 13 20
22 20 20 20 20 19 19 19 20 21 21 21 19 15 14 17 22 25 28 30 32 33 33 32 30 28 26 25 25 25 25 25 24 24 23 23 23 23 22 21 20 20 20 19 19 19 19 18 18 20 22 24 24 22 22 21 19 17 15 11 9 8 11
26 23 22 22 21 20 20 21 21 22 22 20 17 15 17 23 28 29 31 32 31 29 27 25 25 24 23 23 23 23 23 23 23 23 23 22 23 23 22 21 20 20 20 19 19 20 19 17 17 19 22 23 24 22 21 21 20 18 16 13 12 11 10
29 26 24 23 22 22 22 22 22 22 21 19 17 17 20 26 28 29 30 29 27 25 23 22 22 22 22 22 22 22 22 22 22 22 22 22 22 22 22 21 20 20 20 20 19 20 19 17 17 19 21 23 23 21 20 20 20 19 17 15 14 14 13
Wind_Direction
299 300 301 301 300 298 298 299 301 302 302 302 302 302 302 301 300 299 299 299 299 298 298 295 294 292 291 290 288 287 287 287 287 287 286 286 287 285 284 282 279 279 282 286 288 288 290 292 293 293 293 292 292 291 290 288 283 279 277 274 270 266 262
298 299 300 299 298 296 297 299 301 303 303 302 301 300 300 299 299 298 298 299 299 299 298 295 293 291 290 290 288 287 287 287 287 288 288 287 287 286 285 284 281 279 281 285 288 289 289 291 291 291 292 293 293 293 293 292 288 282 278 276 274 271 265
298 299 299 298 296 296 298 300 301 302 302 300 299 298 297 297 296 297 297 298 299 298 297 294 292 291 291 290 289 288 288 288 289 289 288 287 287 287 286 286 283 281 280 284 287 289 290 291 292 291 291 293 292 293 293 293 290 287 283 278 275 274 269
297 298 299 298 296 296 298 299 300 301 300 298 296 295 295 295 295 295 297 297 297 296 295 293 292 291 291 291 289 288 289 289 289 288 287 287 288 288 288 288 286 284 282 283 285 287 288 290 290 289 290 290 290 291 291 291 291 290 287 281 277 276 273
297 299 299 297 295 295 296 297 298 299 298 296 294 294 294 294 294 295 296 295 294 293 292 292 291 291 292 291 289 288 289 289 290 289 288 288 288 289 290 289 288 286 283 280 281 284 286 286 286 287 288 288 288 289 290 290 290 290 288 285 282 278 275
298 300 300 297 294 293 293 295 297 298 296 294 293 293 293 293 295 295 294 293 292 291 290 290 290 290 291 291 289 289 289 289 290 290 290 290 290 291 292 290 287 286 283 280 280 283 285 286 286 287 289 288 288 289 290 291 292 291 290 289 287 284 280
298 299 299 296 293 292 293 295 297 296 294 293 293 293 294 295 296 294 292 291 290 291 290 289 289 290 291 291 290 289 290 290 291 291 292 292 293 294 292 289 287 286 284 282 282 283 284 285 286 286 288 289 289 289 288 289 290 292 293 292 291 289 285
297 297 296 295 294 294 294 295 296 294 293 292 293 294 295 295 294 293 292 292 292 292 291 290 289 289 291 291 289 289 290 290 291 292 293 294 295 294 290 288 287 286 284 282 281 281 282 283 284 285 287 289 288 285 286 288 288 288 291 293 292 291 289
296 296 296 296 296 295 295 294 293 293 292 293 295 297 298 297 296 297 297 298 298 297 295 293 292 292 292 292 291 291 291 292 293 293 293 295 295 293 289 288 286 284 282 281 280 280 280 280 280 282 283 284 283 282 286 290 288 285 287 291 292 291 289
295 296 296 297 296 295 294 293 292 292 293 294 297 299 299 297 298 299 299 299 299 298 296 294 293 293 294 294 293 293 292 292 293 292 289 287 287 285 284 283 282 281 280 278 277 278 279 278 278 281 282 282 284 285 285 286 286 285 287 288 289 289 287
295 296 296 296 295 294 293 292 292 293 295 296 295 294 294 293 294 294 295 296 295 294 292 291 291 292 293 293 292 291 291 290 291 290 287 283 282 280 278 276 275 275 275 275 274 276 277 276 276 281 283 282 285 286 285 284 284 284 284 284 283 285 286
295 295 295 294 294 293 293 293 293 295 296 295 293 289 288 289 290 291 291 292 290 289 288 289 290 291 291 291 291 291 291 290 291 291 289 287 285 282 279 277 273 272 271 271 272 274 275 275 277 280 282 283 284 285 284 284 282 281 281 279 277 279 282
295 294 294 294 294 294 294 293 295 297 296 294 292 290 286 285 288 288 287 286 285 285 285 287 289 291 290 290 290 289 289 289 290 290 289 288 286 283 281 280 277 274 272 271 272 272 273 274 275 277 279 283 285 283 282 281 280 280 278 275 274 277 282
294 294 294 295 294 295 294 294 297 299 297 295 294 292 287 285 286 285 283 282 282 282 284 286 288 289 289 289 288 287 286 286 287 289 290 291 289 287 286 285 283 281 278 277 276 274 274 275 275 275 278 284 285 281 278 277 278 280 279 276 278 281 283
295 295 295 295 295 295 295 297 299 299 297 294 292 290 286 284 283 281 280 280 280 282 284 286 287 287 288 288 286 284 285 286 289 292 294 295 294 295 295 294 292 291 288 285 283 281 281 282 281 280 282 285 285 281 279 279 279 280 280 277 277 278 278
296 296 297 297 297 297 297 298 299 298 295 292 290 288 286 285 284 282 281 281 282 283 284 284 285 286 285 285 284 283 284 288 292 294 293 292 293 294 294 293 293 293 291 288 286 285 285 285 286 286 285 286 286 284 284 283 279 277 275 271 269 270 272
297 297 297 298 298 298 297 297 297 297 294 291 289 289 288 287 286 285 284 284 285 285 284 283 283 283 284 284 284 285 287 292 295 295 292 290 291 291 292 293 294 296 293 289 285 283 282 282 283 283 284 286 286 285 284 280 274 272 271 266 262 263 268
297 297 297 298 297 297 296 296 296 297 295 291 289 288 287 288 289 288 288 289 289 288 286 285 284 284 285 286 288 290 293 295 296 295 292 292 293 293 293 294 296 296 293 289 284 279 277 277 276 275 276 278 278 278 277 275 273 273 272 266 260 259 264
297 297 297 297 297 296 297 296 296 297 296 291 288 286 286 289 292 291 291 291 292 291 289 289 290 290 287 286 288 291 292 293 293 292 291 293 294 292 292 293 294 293 290 287 284 282 281 280 279 279 279 278 276 275 274 273 275 275 272 266 262 261 261
297 297 297 297 297 296 297 298 297 297 296 292 288 285 286 291 292 292 293 293 294 294 295 295 295 291 285 285 286 287 289 291 291 290 292 293 292 291 293 296 293 287 282 281 281 282 283 284 283 284 283 282 281 279 278 277 277 276 272 266 262 261 258
299 298 298 298 298 298 299 300 300 299 297 292 288 286 288 293 294 295 296 297 296 297 297 295 292 289 287 288 288 289 290 291 290 292 294 293 291 293 296 294 287 282 281 281 282 284 284 285 285 285 284 284 283 281 281 280 278 275 272 266 261 260 259
300 300 299 300 300 300 303 304 302 301 299 296 296 294 293 296 298 297 297 297 296 295 294 292 290 290 291 291 290 290 289 289 289 292 292 290 290 292 292 289 287 287 287 286 286 286 286 286 286 286 285 285 284 282 281 280 278 277 275 268 262 261 260
302 302 301 302 303 304 308 309 306 304 304 307 307 304 302 302 300 295 293 295 295 293 291 290 291 292 293 292 291 290 289 288 288 287 287 288 290 291 292 291 289 288 287 286 286 286 286 286 288 290 290 289 288 285 282 279 277 278 278 275 269 265 265
305 305 305 305 306 308 312 314 310 310 313 314 313 310 311 311 306 295 289 288 288 288 289 290 292 293 294 294 290 286 282 282 283 284 288 294 298 298 298 295 292 289 288 288 288 288 289 290 292 293 292 291 290 287 284 278 270 265 266 269 268 264 265
307 307 306 307 309 311 316 318 317 317 318 317 313 311 313 313 307 299 294 292 291 292 293 293 293 294 293 290 286 282 281 284 288 294 300 304 305 304 302 299 296 294 293 291 291 292 292 293 293 294 293 292 292 290 286 282 272 264 260 262 265 265 265
307 307 308 309 311 315 319 321 321 320 318 315 313 313 313 312 309 307 305 303 302 301 299 298 297 296 294 293 291 291 292 295 298 301 304 304 304 302 300 298 296 295 293 293 293 294 293 293 295 295 295 294 293 290 288 286 282 276 269 266 268 270 270
307 308 310 312 316 319 320 320 319 318 316 313 312 313 314 312 311 309 307 305 305 305 305 304 301 296 293 291 291 290 290 291 294 297 300 301 301 300 298 297 295 294 294 295 295 294 294 295 297 298 297 296 293 289 289 292 292 285 277 274 275 272 270
310 311 312 314 316 317 316 315 315 314 312 311 313 314 315 313 311 309 308 308 308 307 303 297 291 287 285 284 283 283 285 288 293 296 298 299 300 298 297 295 294 293 294 295 295 295 296 298 301 301 300 299 296 292 291 295 296 288 281 280 280 272 267
307 307 310 312 312 313 312 311 310 310 309 309 309 308 307 305 303 304 305 303 296 289 283 279 279 280 281 283 284 286 289 292 295 297 297 298 299 298 297 296 296 297 299 299 300 300 300 302 305 304 304 303 298 293 293 298 298 291 286 282 276 268 265
296 296 301 303 302 302 303 303 303 302 299 296 295 294 293 293 293 296 294 286 279 277 277 279 281 283 284 287 289 291 293 295 296 298 298 298 298 298 298 299 300 301 304 305 305 303 303 306 309 308 307 305 299 295 296 301 300 297 296 291 279 267 263
293 290 294 296 294 294 294 294 295 294 291 290 288 285 284 287 289 288 283 278 277 279 282 285 287 289 290 291 292 293 293 294 296 297 296 296 297 299 300 301 302 304 307 309 308 305 305 309 311 311 309 307 303 301 302 304 306 309 314 313 292 270 260
300 295 295 293 290 291 293 295 297 296 294 293 288 282 281 284 283 277 274 276 280 286 290 292 294 295 294 293 292 291 292 293 294 295 294 295 298 300 301 302 304 306 310 311 309 307 308 311 312 313 313 310 307 306 306 306 310 316 325 328 304 275 261
307 303 300 295 292 293 295 296 296 294 291 290 286 282 283 285 283 280 281 284 288 292 294 295 296 295 293 291 290 289 290 291 292 292 293 294 296 299 302 303 304 306 310 311 311 309 310 312 313 315 315 312 309 308 308 307 310 317 322 324 310 283 267
314 311 308 305 304 306 306 304 301 298 296 294 295 298 300 292 285 283 283 285 288 291 293 293 293 292 290 288 287 287 289 290 291 292 293 293 295 297 300 303 304 306 309 311 312 312 310 312 316 319 318 316 312 311 309 307 309 314 316 311 307 301 283
317 317 315 312 313 315 315 312 308 305 304 306 312 316 303 286 280 278 279 281 285 289 291 293 294 294 293 291 288 288 289 289 291 293 294 294 295 296 299 302 305 307 309 312 314 313 311 311 316 320 321 318 315 313 312 310 309 310 309 305 301 300 295
316 316 315 315 317 318 316 312 308 306 307 310 310 302 288 280 278 281 283 285 289 293 296 298 298 297 297 295 292 291 290 291 292 294 294 295 296 297 298 301 304 307 309 312 313 312 311 312 317 322 323 320 316 314 313 311 308 305 302 300 297 292 286